[[{"header":{"parameterUnit":"m.s-1","parameterCategory":1,"la1":30.2991,"la2":30.254,"lo1":-89.0895,"lo2":-89.0444,"dy":0.0017,"dx":0.0017,"nx":28,"ny":28,"refTime":"2025-04-24T09:00:00:Z","depth":0,"parameterNumber":2,"parameterNumberName":"U-component_of_WINDS"},"data":[0,0,0,0,0,0,0,0,0,0,0,0,0,0,0,0,0,0,0,0,0,0,0,0,0,0,0,0,0,0,0,0,0,0,0,0,0,0,0,0,0,0,0,0,0,0,0,0,0,0,0,0,0,0,0,0,0,0,-0.6444,-0.6443,0,-0.642,-0.642,-0.642,-0.6394,-0.6394,-0.6394,-0.6393,-0.637,-0.637,-0.637,0,0,0,0,0,0,0,0,0,0,0,0,0,-0.6469,-0.6469,-0.6444,-0.6443,-0.6443,-0.642,-0.642,-0.6419,-0.6394,-0.6394,-0.6394,-0.6393,-0.637,-0.637,-0.637,0,0,0,0,0,0,0,0,0,0,0,0,0,-0.6453,-0.6468,-0.6444,-0.6428,-0.6426,-0.642,-0.642,-0.6419,-0.6395,-0.6394,-0.6393,-0.6393,-0.6371,-0.637,-0.637,-0.6378,0,0,-0.6368,-0.6368,0,0,0,0,0,0,0,0,-0.6454,-0.6452,-0.643,-0.6429,-0.6427,-0.641,-0.642,-0.6406,-0.6395,-0.6407,-0.6393,-0.6393,-0.6384,-0.6382,-0.6379,-0.6377,-0.6376,-0.6368,-0.6368,-0.6368,-0.6368,0,0,0,0,0,0,0,-0.6455,-0.6453,-0.6434,-0.643,-0.6428,-0.6422,-0.642,-0.6417,-0.6399,-0.6405,-0.6404,-0.6401,-0.6383,-0.638,-0.6378,-0.6375,-0.6368,-0.6368,-0.6368,-0.6368,-0.638,-0.638,0,0,0,0,0,0,-0.6458,-0.6454,-0.6435,-0.6434,-0.6439,-0.6422,-0.6419,-0.6416,-0.6399,-0.6395,-0.6402,-0.64,-0.6381,-0.6379,-0.6378,-0.6387,-0.6368,-0.6368,-0.6367,-0.6379,-0.638,-0.6381,0,0,0,0,0,0,-0.6459,-0.6457,-0.6436,-0.6443,-0.644,-0.6423,-0.6419,-0.6416,-0.6412,-0.6396,-0.6392,-0.6402,-0.638,-0.6378,-0.6378,-0.6385,-0.6367,-0.6367,-0.6379,-0.638,-0.638,-0.6404,0,0,0,0,0,0,-0.646,-0.6457,-0.646,-0.6444,-0.644,-0.6437,-0.6419,-0.6415,-0.6411,-0.6409,-0.6395,-0.6392,-0.638,-0.6379,-0.6378,-0.6384,-0.6367,-0.6378,-0.6379,-0.638,-0.6403,-0.6406,-0.6409,0,0,0,0,0,-0.6461,-0.6467,-0.646,-0.6458,-0.6442,-0.6437,-0.6435,-0.642,-0.6412,-0.6415,-0.6404,-0.6392,-0.6385,-0.6379,-0.6378,-0.6384,-0.6377,-0.6379,-0.638,-0.6402,-0.6405,-0.6409,0,0,0,0,0,0,-0.6485,-0.6465,-0.6456,-0.6458,-0.6449,-0.6433,-0.6435,-0.6425,-0.6419,-0.6417,-0.6399,-0.6396,-0.6399,-0.6392,-0.6386,-0.6392,-0.6379,-0.6381,-0.6396,-0.64,-0.6403,-0.6404,-0.6366,0,0,0,0,0,-0.649,-0.6487,-0.647,-0.6473,-0.6469,-0.6453,-0.645,-0.644,-0.6431,-0.6427,-0.6416,-0.6408,-0.6404,-0.6402,-0.6397,-0.6402,-0.6399,-0.6406,-0.6409,-0.6411,-0.6412,-0.6415,-0.6419,-0.6385,-0.6385,-0.6385,0,0,-0.6502,-0.649,-0.6489,-0.6478,-0.647,-0.6467,-0.645,-0.6448,-0.6447,-0.6427,-0.6426,-0.6418,-0.6408,-0.6411,-0.6412,-0.6405,-0.6421,-0.6413,-0.6415,-0.6415,-0.6417,-0.642,-0.6423,-0.6386,-0.6386,-0.6385,0,0,-0.6521,-0.6512,-0.6514,-0.6506,-0.6495,-0.6484,-0.6485,-0.647,-0.6464,-0.6463,-0.6448,-0.6447,-0.644,-0.6433,-0.6429,-0.6447,-0.6436,-0.6446,-0.6461,-0.6465,-0.6467,-0.647,-0.6477,-0.6479,-0.6448,-0.6448,-0.6448,0,-0.6536,-0.6532,-0.6516,-0.6515,-0.6511,-0.6493,-0.6495,-0.6489,-0.6477,-0.6474,-0.6467,-0.6459,-0.645,-0.6452,-0.6456,-0.6453,-0.6454,-0.6448,-0.6468,-0.647,-0.6472,-0.6479,-0.6481,-0.6449,-0.6449,-0.6449,-0.6448,0,-0.6552,-0.6549,-0.6552,-0.6541,-0.6537,-0.6537,-0.6523,-0.6521,-0.6511,-0.6502,-0.6502,-0.6491,-0.6484,-0.6484,-0.6475,-0.6485,-0.6481,-0.6471,-0.6458,-0.6477,-0.6483,-0.6485,-0.6451,-0.645,-0.645,-0.645,0,0,-0.6585,-0.6565,-0.6567,-0.6562,-0.6548,-0.6546,-0.6547,-0.654,-0.6539,-0.6531,-0.6532,-0.6527,-0.6518,-0.6513,-0.6503,-0.6506,-0.6522,-0.6496,-0.6495,-0.6501,-0.6533,-0.6541,-0.6544,-0.6515,-0.6515,-0.6515,-0.6534,0,-0.6602,-0.6601,-0.6588,-0.6591,-0.6589,-0.6572,-0.6573,-0.6565,-0.6556,-0.6554,-0.6545,-0.6542,-0.653,-0.6527,-0.6529,-0.652,-0.6528,-0.6518,-0.6515,-0.6516,-0.6519,-0.6547,-0.6555,-0.6573,-0.6536,-0.6537,-0.6537,0,-0.6622,-0.6616,-0.6619,-0.6606,-0.6604,-0.6605,-0.6598,-0.6596,-0.6587,-0.6581,-0.6576,-0.6565,-0.6565,-0.6553,-0.6554,-0.6547,-0.6546,-0.6541,-0.6541,-0.6541,-0.6527,-0.6547,-0.6578,-0.6581,-0.654,-0.654,-0.654,0,-0.6647,-0.6639,-0.664,-0.6636,-0.6621,-0.6622,-0.6616,-0.6607,-0.6604,-0.6598,-0.6596,-0.6591,-0.6588,-0.6584,-0.6572,-0.6564,-0.6575,-0.6561,-0.657,-0.657,-0.6573,-0.6573,-0.6604,-0.6572,-0.6571,-0.6571,-0.6571,0,-0.6667,-0.667,-0.6651,-0.6651,-0.6654,-0.6639,-0.6643,-0.6635,-0.6627,-0.6627,-0.6612,-0.6612,-0.6596,-0.6594,-0.6585,-0.6587,-0.6586,-0.6581,-0.6579,-0.6583,-0.6583,-0.6581,-0.658,-0.6572,-0.6572,-0.6572,-0.6572,0,-0.6695,-0.6682,-0.6682,-0.6668,-0.6665,-0.6668,-0.6656,-0.6657,-0.6648,-0.6647,-0.6646,-0.6632,-0.663,-0.6617,-0.6612,-0.6605,-0.6611,-0.6606,-0.6614,-0.6613,-0.6622,-0.6622,-0.6654,-0.6657,-0.6622,-0.6622,-0.6623,0,-0.6709,-0.6711,-0.6697,-0.6696,-0.669,-0.6688,-0.6685,-0.6671,-0.6669,-0.6659,-0.6661,-0.6657,-0.6654,-0.665,-0.664,-0.6636,-0.6631,-0.6642,-0.663,-0.6634,-0.6632,-0.6632,-0.6632,-0.6645,-0.6646,-0.6646,-0.6646,0,-0.6736,-0.673,-0.6726,-0.672,-0.6717,-0.6712,-0.6706,-0.6706,-0.669,-0.6689,-0.6686,-0.6683,-0.6677,-0.6674,-0.6669,-0.6663,-0.6652,-0.665,-0.6652,-0.6656,-0.6661,-0.6659,-0.6622,-0.6649,-0.6649,-0.6649,-0.6649,-0.6649,-0.6758,-0.6759,-0.6749,-0.6746,-0.674,-0.6735,-0.6735,-0.6726,-0.6724,-0.6718,-0.671,-0.6708,-0.6701,-0.6692,-0.6687,-0.6686,-0.668,-0.6683,-0.6683,-0.6684,-0.6687,-0.6661,-0.6685,-0.6685,-0.6685,-0.6685,-0.6685,0,-0.6784,-0.6777,-0.6774,-0.6767,-0.6764,-0.6754,-0.6748,-0.6746,-0.6745,-0.6739,-0.6735,-0.6733,-0.673,-0.672,-0.6716,-0.6717,-0.6712,-0.6716,-0.6716,-0.6715,-0.6692,-0.6691,-0.6721,-0.6721,-0.6721,-0.6721,-0.6721,-0.6721,-0.6798,-0.6799,-0.6792,-0.6791,-0.6784,-0.6783,-0.678,-0.6775,-0.677,-0.6768,-0.6765,-0.6759,-0.6751,-0.6746,-0.6744,-0.6741,-0.674,-0.6746,-0.6742,-0.672,-0.6717,-0.6714,-0.6713,-0.6746,-0.6746,-0.6765,-0.6766,-0.6766]},{"header":{"parameterUnit":"m.s-1","parameterCategory":1,"la1":30.2991,"la2":30.254,"lo1":-89.0895,"lo2":-89.0444,"dy":0.0017,"dx":0.0017,"nx":28,"ny":28,"refTime":"2025-04-24T09:00:00:Z","depth":0,"parameterNumber":3,"parameterNumberName":"V-component_of_WINDS"},"data":[0,0,0,0,0,0,0,0,0,0,0,0,0,0,0,0,0,0,0,0,0,0,0,0,0,0,0,0,0,0,0,0,0,0,0,0,0,0,0,0,0,0,0,0,0,0,0,0,0,0,0,0,0,0,0,0,0,0,3.3829,3.3829,0,3.3807,3.3806,3.3806,3.3747,3.3746,3.3745,3.3743,3.3722,3.3722,3.3723,0,0,0,0,0,0,0,0,0,0,0,0,0,3.3824,3.3825,3.3829,3.3829,3.3829,3.3807,3.3806,3.3806,3.3747,3.3746,3.3744,3.3743,3.3722,3.3722,3.3723,0,0,0,0,0,0,0,0,0,0,0,0,0,3.3817,3.3825,3.383,3.3797,3.3794,3.3807,3.3806,3.3806,3.3748,3.3746,3.3744,3.3742,3.3721,3.3722,3.3723,3.3767,0,0,3.3726,3.3726,0,0,0,0,0,0,0,0,3.3817,3.3817,3.3802,3.3799,3.3796,3.3778,3.3797,3.3793,3.3748,3.3765,3.3743,3.3741,3.3742,3.3741,3.3741,3.3766,3.3765,3.3726,3.3727,3.3727,3.3727,0,0,0,0,0,0,0,3.3818,3.3817,3.382,3.3802,3.3798,3.3784,3.3781,3.3796,3.3765,3.3764,3.3759,3.3757,3.374,3.374,3.374,3.3764,3.3726,3.3727,3.3727,3.3728,3.3824,3.3826,0,0,0,0,0,0,3.3823,3.3818,3.3821,3.382,3.3802,3.3786,3.3782,3.3785,3.3764,3.3759,3.3759,3.3755,3.374,3.3739,3.3739,3.3789,3.3727,3.3728,3.3728,3.3822,3.3824,3.3827,0,0,0,0,0,0,3.3823,3.3823,3.3822,3.3818,3.3817,3.3788,3.3792,3.3786,3.3786,3.3761,3.3755,3.3765,3.3738,3.3738,3.376,3.3787,3.3728,3.3729,3.382,3.3823,3.3826,3.3888,0,0,0,0,0,0,3.3823,3.3824,3.3839,3.3819,3.3817,3.3843,3.3794,3.3787,3.3788,3.3782,3.3765,3.376,3.3737,3.3759,3.3761,3.3787,3.373,3.3817,3.3821,3.3825,3.3884,3.3893,3.3901,0,0,0,0,0,3.3823,3.3858,3.3841,3.3841,3.3836,3.3845,3.3844,3.3816,3.379,3.3806,3.379,3.3761,3.3784,3.3762,3.3764,3.3791,3.3815,3.382,3.3824,3.388,3.3891,3.3901,0,0,0,0,0,0,3.3884,3.3855,3.3835,3.3865,3.3858,3.3835,3.3854,3.3829,3.3829,3.3824,3.3789,3.3786,3.3813,3.3804,3.378,3.3832,3.3795,3.38,3.3837,3.3847,3.3856,3.3857,3.3731,0,0,0,0,0,3.39,3.3909,3.3884,3.3913,3.391,3.3883,3.3886,3.3865,3.3856,3.3853,3.3838,3.3832,3.3837,3.3842,3.3846,3.3882,3.3878,3.3902,3.391,3.3918,3.3922,3.3941,3.3952,3.3842,3.3841,3.3841,0,0,3.3935,3.3921,3.3928,3.3925,3.3916,3.3927,3.3881,3.3894,3.3901,3.3855,3.3875,3.3864,3.3855,3.3884,3.3897,3.3877,3.3952,3.3923,3.3929,3.393,3.3947,3.3958,3.3967,3.3845,3.3844,3.3844,0,0,3.4004,3.3994,3.4017,3.401,3.3998,3.398,3.3985,3.3966,3.3957,3.3977,3.3942,3.3951,3.3962,3.3957,3.3955,3.4023,3.3996,3.4025,3.4071,3.409,3.4098,3.4106,3.413,3.4139,3.403,3.403,3.4031,0,3.4049,3.4063,3.4032,3.4047,3.4046,3.4005,3.4028,3.4023,3.4014,3.4015,3.3993,3.4006,3.3997,3.4024,3.4041,3.4041,3.4047,3.4027,3.4099,3.4107,3.4113,3.4136,3.4145,3.4034,3.4034,3.4033,3.4033,0,3.4118,3.4129,3.4149,3.414,3.4142,3.4161,3.4134,3.414,3.4119,3.4103,3.4124,3.4111,3.4112,3.4117,3.4097,3.4143,3.4131,3.4106,3.4068,3.4128,3.4149,3.4157,3.4039,3.4038,3.4037,3.4036,0,0,3.4224,3.4198,3.4206,3.4202,3.4186,3.4194,3.4212,3.4212,3.4218,3.4213,3.4228,3.4238,3.4214,3.4213,3.4192,3.4208,3.4263,3.418,3.418,3.4196,3.4313,3.4332,3.4343,3.4246,3.4247,3.4248,3.4313,0,3.4289,3.4317,3.429,3.4323,3.4333,3.4294,3.4309,3.4302,3.4288,3.4295,3.4279,3.4287,3.4255,3.4254,3.4269,3.4253,3.4286,3.4248,3.4259,3.426,3.4262,3.4353,3.4374,3.4435,3.4321,3.4323,3.4324,0,3.4367,3.4366,3.44,3.4383,3.4386,3.44,3.4398,3.4405,3.4396,3.4385,3.4384,3.4359,3.4376,3.4339,3.4363,3.4338,3.4341,3.4334,3.4336,3.4335,3.4295,3.4355,3.4455,3.4464,3.4336,3.4335,3.4334,0,3.4441,3.4447,3.4469,3.4467,3.4447,3.4458,3.445,3.444,3.4442,3.4441,3.4442,3.4443,3.4444,3.4446,3.4422,3.4397,3.4448,3.441,3.444,3.4441,3.4452,3.4451,3.4553,3.4455,3.4454,3.4454,3.4454,0,3.4515,3.4538,3.4502,3.4515,3.4539,3.4509,3.4534,3.4523,3.4514,3.4525,3.4491,3.4502,3.447,3.4478,3.446,3.4482,3.4483,3.4474,3.4469,3.4477,3.4478,3.4478,3.4473,3.4457,3.4456,3.4456,3.4455,0,3.4601,3.4578,3.4598,3.4578,3.4574,3.4593,3.4576,3.4587,3.4572,3.4586,3.4588,3.4563,3.4571,3.4547,3.4551,3.4539,3.4571,3.4559,3.4574,3.457,3.4601,3.4599,3.4706,3.4719,3.4613,3.4614,3.4615,0,3.465,3.4667,3.4648,3.4653,3.4647,3.4655,3.4657,3.4628,3.4631,3.4623,3.4636,3.4641,3.4643,3.4657,3.464,3.4643,3.4631,3.4668,3.4631,3.4639,3.4631,3.4631,3.4632,3.4676,3.4677,3.4678,3.4679,0,3.474,3.4727,3.4731,3.4731,3.4734,3.4732,3.4729,3.4735,3.4704,3.4709,3.4717,3.4718,3.4723,3.4728,3.4728,3.472,3.4695,3.4691,3.4698,3.4706,3.4714,3.471,3.4595,3.4689,3.4688,3.4687,3.4687,3.4686,3.4808,3.4821,3.481,3.4816,3.481,3.4807,3.4818,3.4803,3.4808,3.4809,3.4792,3.4803,3.4794,3.4791,3.4786,3.4795,3.4778,3.4788,3.4791,3.4794,3.4799,3.4713,3.4795,3.4795,3.4794,3.4794,3.4794,0,3.4896,3.4887,3.4892,3.4888,3.4893,3.4868,3.4863,3.4868,3.4878,3.4872,3.4875,3.4884,3.4889,3.4873,3.4876,3.4886,3.4874,3.4888,3.4886,3.4885,3.4814,3.4807,3.4897,3.4897,3.4897,3.4897,3.4897,3.4897,3.4942,3.4963,3.4949,3.4967,3.4958,3.4968,3.4967,3.4965,3.496,3.4971,3.4975,3.4964,3.4954,3.4956,3.496,3.4955,3.4958,3.4976,3.4967,3.49,3.489,3.4881,3.4874,3.4976,3.4977,3.5037,3.5038,3.5038]}]]